TimeHST,TemperatureF,Dew PointF,Humidity,Sea Level PressureIn,VisibilityMPH,Wind Direction,Wind SpeedMPH,Gust SpeedMPH,PrecipitationIn,Events,Conditions,WindDirDegrees,DateUTC
12:56 AM,68.9,65.8,90,29.97,10.0,NNE,9.2,-,N/A,,Clear,30,2012-10-03 10:56:00
1:56 AM,68.9,65.8,90,29.97,10.0,Calm,Calm,-,N/A,,Clear,0,2012-10-03 11:56:00
2:56 AM,65.8,63.9,93,29.98,10.0,Calm,Calm,-,N/A,,Partly Cloudy,0,2012-10-03 12:56:00
3:56 AM,65.8,63.9,93,29.96,10.0,Calm,Calm,-,N/A,,Partly Cloudy,0,2012-10-03 13:56:00
4:56 AM,65.8,63.9,93,29.98,10.0,Calm,Calm,-,N/A,,Clear,0,2012-10-03 14:56:00
5:56 AM,63.9,63.0,97,29.99,10.0,Calm,Calm,-,N/A,,Clear,0,2012-10-03 15:56:00
6:56 AM,68.0,65.8,93,30.00,10.0,Calm,Calm,-,N/A,,Clear,0,2012-10-03 16:56:00
7:56 AM,73.9,66.9,79,30.01,10.0,NNE,8.1,-,N/A,,Clear,30,2012-10-03 17:56:00
8:56 AM,77.9,64.9,64,30.02,10.0,Calm,Calm,-,N/A,,Partly Cloudy,0,2012-10-03 18:56:00
9:56 AM,79.9,65.8,62,30.02,10.0,WNW,4.6,-,N/A,,Clear,290,2012-10-03 19:56:00
10:56 AM,82.4,66.2,58,30.07,10.0,West,9.2,-,N/A,,Clear,280,2012-10-03 20:56:00
11:56 AM,81.9,65.8,58,29.99,10.0,WNW,8.1,-,N/A,,Scattered Clouds,290,2012-10-03 21:56:00
12:56 PM,81.0,66.9,62,29.97,10.0,WSW,9.2,-,N/A,,Scattered Clouds,240,2012-10-03 22:56:00
1:56 PM,82.4,66.2,58,30.02,10.0,Variable,4.6,-,N/A,,Scattered Clouds,0,2012-10-03 23:56:00
2:56 PM,83.8,68.0,59,29.95,10.0,Variable,6.9,-,N/A,,Scattered Clouds,0,2012-10-04 00:56:00
3:23 PM,82.4,66.2,58,30.01,10.0,WNW,9.2,-,N/A,,Mostly Cloudy,300,2012-10-04 01:23:00
3:56 PM,77.0,66.9,71,29.96,10.0,SSE,9.2,-,N/A,,Mostly Cloudy,160,2012-10-04 01:56:00
4:16 PM,75.2,68.0,78,30.02,10.0,Variable,3.5,-,N/A,,Overcast,0,2012-10-04 02:16:00
4:56 PM,75.2,66.2,73,30.03,10.0,NE,11.5,-,N/A,,Scattered Clouds,40,2012-10-04 02:56:00
5:56 PM,73.9,65.8,76,29.99,10.0,NE,10.4,-,N/A,,Partly Cloudy,50,2012-10-04 03:56:00
6:56 PM,70.9,65.8,84,30.01,10.0,NE,8.1,-,N/A,,Clear,50,2012-10-04 04:56:00
7:56 PM,70.9,65.8,84,30.02,10.0,ENE,12.7,-,N/A,,Clear,60,2012-10-04 05:56:00
8:56 PM,70.0,64.9,84,30.03,10.0,ENE,10.4,-,N/A,,Clear,60,2012-10-04 06:56:00
9:56 PM,70.0,63.9,81,30.03,-9999.0,ENE,10.4,-,N/A,,Clear,60,2012-10-04 07:56:00
10:56 PM,69.8,64.4,83,30.09,-9999.0,Calm,Calm,-,N/A,,Clear,0,2012-10-04 08:56:00
11:56 PM,68.9,64.9,87,30.01,-9999.0,Calm,Calm,-,N/A,,Mostly Cloudy,0,2012-10-04 09:56:00